Вернуться в каталог

SL-8 R/B

АктивенLEO
NORAD 6324·ROCKET BODY·🇷🇺 Russia

Запущен Dec 25, 1972 с Plesetsk Cosmodrome

Loading…

Ближайшие Пролёты (ближайшие 24 часа)

TLE

СвежийSource: Space-Track

Эпоха: Sep 14, 2026, 14:17 UTC

1 06324U 72104B   26257.59529699  .00000157  00000-0  52344-4 0  9990
2 06324  74.0769 323.0322 0009645 308.5099  51.5194 14.45377188822648

Отслеживайте SL-8 R/B в реальном времени с AllMySat

Download on the App Store